Flag for Brazil Weather past 2 weeks in Rio Branco, Acre, Brazil

Now
66 °F

Clear.


Feels Like: 66 °F
Forecast: 64 / 91 °F
Wind: No wind

Location: Rio Branco Airport

Current Time: Aug 28, 2014 at 3:12:31 AM

Latest Report: Aug 28, 2014 at 2:00 AM


Visibility: 5 mi

Pressure: 29.92 "Hg

Humidity: 83%

Dew point: 61 °F

Location of Rio BrancoLocation

Historic Weather in Rio Branco — Graph

°F

Rio Branco temperature yesterday

Maximum temperature yesterday: 81 °F (at 1:00 PM)
Minimum temperature yesterday: 63 °F (at 5:00 AM)
Average temperature yesterday: 71 °F

Past Weeks' High & Low Weather Summary

 TemperatureHumidityPressure
High93 °F (Aug 18, 1:00 PM)94% (Aug 13, 5:00 AM)30.12 "Hg (Aug 13, 5:00 AM)
Low57 °F (Aug 15, 6:00 AM)24% (Aug 18, 1:00 PM)29.74 "Hg (Aug 24, 5:00 PM)
Average76 °F66%29.94 "Hg
* Reported Aug 13 4:00 AM — Aug 28 2:00 AM, Rio Branco, Weather by CustomWeather, © 2014

Note: Actual official high and low records may vary slightly from our data, if they occured in-between our weather recording intervals... More about our weather records

Advertising

Rio Branco weather history for previous 24 hours

 ConditionsComfort  
Time TempWeatherWind HumidityBarometerVisibility
2:00 AM
Aug 28
66 °FClear.No wind83%29.92 "Hg5 mi
1:00 AM64 °FClear.No wind88%29.95 "Hg10 mi
12:00 AM66 °FClear.No wind83%29.95 "Hg10 mi
11:00 PM
Aug 27
68 °FClear.No wind73%29.95 "Hg5 mi
10:00 PM70 °FClear.2 mph69%29.98 "Hg5 mi
9:00 PM70 °FClear.2 mph69%29.95 "Hg10 mi
8:00 PM72 °FClear.3 mph65%29.95 "Hg10 mi
7:00 PM72 °FClear.5 mph69%29.92 "Hg10 mi
6:00 PM73 °FSunny.3 mph65%29.92 "Hg10 mi
5:00 PM77 °FSunny.5 mph54%29.89 "Hg10 mi
4:00 PM81 °FSunny.6 mph45%29.89 "Hg10 mi
3:00 PM81 °FSunny.6 mph42%29.89 "Hg10 mi
2:00 PM81 °FSunny.9 mph42%29.92 "Hg10 mi
1:00 PM81 °FSunny.9 mph42%29.95 "Hg10 mi
12:00 PM79 °FSunny.10 mph42%29.98 "Hg10 mi
11:00 AM75 °FSunny.10 mph44%30.01 "Hg10 mi
10:00 AM75 °FSunny.13 mph47%30.04 "Hg10 mi
9:00 AM68 °FSunny.13 mph60%30.04 "Hg10 mi
8:00 AM66 °FPartly sunny.8 mph68%30.04 "HgN/A
7:00 AM64 °FBroken clouds.3 mph78%30.04 "HgN/A
6:00 AM63 °FPassing clouds.3 mph88%29.98 "HgN/A
5:00 AM63 °FPartly cloudy.5 mph88%29.95 "HgN/A
4:00 AM64 °FPartly cloudy.5 mph88%29.95 "HgN/A
3:00 AM64 °FPassing clouds.3 mph88%29.92 "HgN/A
Weather by CustomWeather, © 2014

See weather overviewHow to use our weather pages